星链-4276 (STARLINK-4276 )

导读

STARLINK-4276是美国太空探索技术公司星链(Starlink)星座中的卫星,于2022年7月17日发射入轨。星链星座旨在构建全球卫星互联网通信网络,该卫星承担为全球偏远地区、海洋空中等场景提供低延迟互联网接入服务的任务,是星链大规模组网部署进程中的组成单元,助力覆盖全球的卫星通信网络搭建。

Basic Information
目录编号:
53179
目录名称:
STARLINK-4276
国际标识:
2022-083AZ
轨道中心:
EARTH
卫星名称:
星链-4276
卫星全名:
星链-4276 (STARLINK-4276 )
卫星状态:
在轨 (已飞行1511 天)
发射日期:
2022-07-17 UTC
国别 :
美国 (US)
星等 :
--
Orbit Information
数据来源 国际轨道数据 AOE轨道数据
星历时间 2026-09-04T17:45:40+0800
1天前
查看轨道信息
2026-09-01T02:00:00+0800
4天前
查看轨道信息
半长轴 6840.875km 6840.84km
偏心率 0.0001088 0.0000837
轨道倾角 53.162° 53.159°
近地点辐角 65.902° 86.239°
升交点赤经 32.614° 49.714°
平近点角 294.210° 223.593°
近地点 461.993km 462.13km
远地点 463.483km 463.276km
周期 93.848分钟 93.848分钟
每日圈数 15.343885 15.344003
Detailed Information
固有亮度:
5
最大亮度:
2.5
卫星平台:
Starlink v1.5
覆盖范围:
全球
运营商:
太空探索技术公司
运营商所在国:
美国
制造商(研发单位):
太空探索技术公司
制造商所在国:
美国
使用方式:
暂无
Satellite Introduction
星链(Starlink)计划是由太空探索技术公司(SpaceX)提出的一个巨型低轨卫星互联网星座项目,计划在2019年至2024年间在太空搭建由约1.2万颗卫星组成的“星链”网络,其中1584颗将部署在地球上空550千米处的近地轨道,并从2020年开始工作。该卫星仍在工作。
2D Orbit Map
3D Orbit Map
Orbit Altitude Analysis Chart
Orbit Inclination Analysis Chart
Orbit Comprehensive Analysis Chart
View Comprehensive Chart
Conjunction Data List
Event ID Objects TCA Miss Dist (km) Collision Risk Probability Collision Risk Index (CRI) Action
CDM_260905-102505-317906-324023
2026-09-05T
10:25:25+0000
1.081 km
极远距离
1.877586E-5 中风险 0.6
CDM_260907-103705-317906-489121
OBJECT R (64891)
2026-09-07T
10:37:33+0000
1.209 km
极远距离
1.384273E-5 中风险 0.58
CDM_260907-095005-317906-489121
OBJECT R (64891)
2026-09-07T
09:50:38+0000
2.314 km
极远距离
2.01814E-6 低风险 0.41